Miscellaneous Local Product
Issued by NWS Hastings, NE

Home | Current Version | Previous Version | Text Only | Print | Product List | Glossary Off
Versions: 1 2 3 4 5 6 7 8 9 10 11 12 13 14 15 16 17 18 19 20 21 22 23 24 25 26 27 28 29 30 31 32 33 34 35 36 37 38 39 40 41 42 43 44 45 46 47 48 49 50

000
AXUS43 KGID 240602
MISGRI

GID CWA HOURLY WEATHER ROUNDUP
NATIONAL WEATHER SERVICE HASTINGS NE
100 AM CDT THU APR 24 2014

NOTE: "FAIR" INDICATES FEW OR NO CLOUDS BELOW 12,000 FEET WITH NO
SIGNIFICANT WEATHER AND/OR OBSTRUCTIONS TO VISIBILITY.

...SOUTH CENTRAL NEBRASKA...

CITY           SKY/WX    TMP DP  RH WIND       PRES   REMARKS
GRAND ISLAND   RAIN      56  54  93 E8        29.63S FOG
HASTINGS       TSTM      57  54  89 SW5       29.67R FOG
KEARNEY        CLOUDY    54  48  82 N18       29.66S
ORD            LGT RAIN  53  47  79 NW16      29.68R
YORK           RAIN      54  54 100 NE8       29.63R
AURORA         CLOUDY    56  56 100 E8        29.64R
LEXINGTON      DRIZZLE   58  43  57 N20G31    29.71R
HOLDREGE       LGT RAIN  55  50  81 N7        29.70R
HEBRON         TSTM      56  51  83 N6        29.64R

...NEBRASKA PANHANDLE...

CITY           SKY/WX    TMP DP  RH WIND       PRES   REMARKS
CHADRON        CLOUDY    45  40  82 SE3       29.87R
ALLIANCE       CLOUDY    47  38  71 NE7       29.85R
SCOTTSBLUFF    CLOUDY    49  31  49 N10       29.89R
SIDNEY         CLOUDY    51  25  36 N21G31    29.85R

...WESTERN AND NORTH CENTRAL NEBRASKA...

CITY           SKY/WX    TMP DP  RH WIND       PRES   REMARKS
VALENTINE      CLOUDY    51  37  58 NW14G22   29.78R
AINSWORTH      CLOUDY    54  38  56 NW18G24   29.75S
ONEILL         CLOUDY    55  39  53 NW16G24   29.70R
BROKEN BOW     LGT RAIN  54  41  61 N24G33    29.71R
IMPERIAL       CLOUDY    53  30  41 N17       29.84R
NORTH PLATTE   CLOUDY    57  34  41 NW21G36   29.79R
MCCOOK         CLOUDY    59  32  36 NW26G33   29.77R

...EASTERN NEBRASKA...

CITY           SKY/WX    TMP DP  RH WIND       PRES   REMARKS
NORFOLK        RAIN      56  53  90 SE9       29.65R FOG
SO SIOUX CITY  LGT RAIN  50  48  93 SE32G43   29.60F
TEKAMAH        LGT RAIN  52  46  80 NE13      29.72R
COLUMBUS       MOCLDY    54  48  82 E16       29.61F
ALBION         RAIN      56  54  94 E7        29.62F
OMAHA EPPLEY   CLOUDY    51  45  79 NW15      29.69R
OFFUTT AFB     MOCLDY    53  49  87 NW14G24   29.66R
MILLARD        LGT RAIN  51  46  82 NW14      29.69R
LINCOLN        CLOUDY    54  46  74 NE14      29.65F
NEBRASKA CITY  FAIR      63  42  45 SE7G21    29.61R
BEATRICE       FAIR      55  47  74 NE22G29   29.59F
FALLS CITY     FAIR      63  45  51 SE14      29.55F

...NORTHERN KANSAS...

CITY           SKY/WX    TMP DP  RH WIND       PRES   REMARKS
GOODLAND       CLOUDY    52  30  43 N31G39    29.83R
HILL CITY      LGT RAIN  56  52  86 N10       29.73R
PHILLIPSBURG   RAIN      55  54  94 N9        29.69R
SMITH CENTER   CLOUDY    54  54 100 NW16      29.69R
BELOIT         CLOUDY    63  52  67 N21G26    29.61R
HAYS           CLOUDY    57  54  88 NW18      29.67R THUNDER
RUSSELL        CLOUDY    66  51  58 W22G44    29.63R
CONCORDIA      CLOUDY    61  49  64 N14G21    29.60R THUNDER
SALINA         FAIR      71  52  50 S15G25    29.53R
TOPEKA         FAIR      73  51  46 SE24G32   29.58F



USA.gov is the U.S. government's official web portal to all federal, state and local government web resources and services.